Welcome to Northern Hawkes Bay. New Zealand.
PWS Header
      nz Flag



Hit Counter


W3C Valid W3C Valid logo


    Wairoa

Select any of the Stations below to visit their websites.










Historic Data from Weather Underground
Select the location of interest below. Wairoa is the default. Please have patience, this Data is slow to load in.
Northern Hawkes Bay Historical Data
Daily Summary for February 25, 2017 Units:  Metric    English   Both
« Previous Day
Next Day »
Daily Weekly Monthly Yearly Custom
  High: Low: Average:
Temperature: 27.5 °C 10.4 °C 17.8 °C
Dew Point: 17.8 °C 10.3 °C 13.8 °C
Humidity: 99% 50% 80%
Wind Speed: 11.1km/h 0.0km/h 4.3km/h
Wind Gust: 19.5km/h - -
Wind- - WSW
Pressure: 1018.8 hPa 1011.4 hPa -
Precipitation: 0.0 mm    
Historical Graphs
 
 
Tabular Data for February 25, 2017
Time Temperature Dew Point Pressure Wind Wind Speed Wind Gust Humidity Rainfall Rate (Hourly) solar
00:02 12.6 °C 12.2 °C 1018.5 hPa NNW 1.1 km/h 5.0 km/h 97% 0.0 mm 0 W/m2
00:07 12.6 °C 12.2 °C 1018.5 hPa Calm   5.0 km/h 97% 0.0 mm 0 W/m2
00:12 12.5 °C 12.1 °C 1018.8 hPa Calm   3.5 km/h 97% 0.0 mm 0 W/m2
00:17 12.5 °C 12.1 °C 1018.5 hPa NW 2.6 km/h 5.0 km/h 97% 0.0 mm 0 W/m2
00:22 12.5 °C 12.1 °C 1018.5 hPa NW 1.1 km/h 5.0 km/h 97% 0.0 mm 0 W/m2
00:27 12.5 °C 12.1 °C 1018.5 hPa Calm   5.0 km/h 97% 0.0 mm 0 W/m2
00:32 12.5 °C 12.1 °C 1018.5 hPa NNW 3.5 km/h 7.2 km/h 97% 0.0 mm 0 W/m2
00:37 12.5 °C 12.1 °C 1018.5 hPa NNW 3.5 km/h 7.2 km/h 97% 0.0 mm 0 W/m2
00:42 12.5 °C 12.1 °C 1018.5 hPa NW 3.5 km/h 7.2 km/h 97% 0.0 mm 0 W/m2
00:47 12.5 °C 12.1 °C 1018.2 hPa NW 3.5 km/h 7.2 km/h 97% 0.0 mm 0 W/m2
00:52 12.5 °C 12.1 °C 1018.5 hPa NW 3.5 km/h 7.2 km/h 97% 0.0 mm 0 W/m2
00:57 12.4 °C 11.9 °C 1018.5 hPa NNW 5.0 km/h 8.7 km/h 97% 0.0 mm 0 W/m2
01:02 12.4 °C 11.9 °C 1018.5 hPa NNW 2.6 km/h 8.7 km/h 97% 0.0 mm 0 W/m2
01:07 12.3 °C 11.8 °C 1018.2 hPa NW 3.5 km/h 8.7 km/h 97% 0.0 mm 0 W/m2
01:12 12.3 °C 11.8 °C 1018.2 hPa NNW 3.5 km/h 6.1 km/h 97% 0.0 mm 0 W/m2
01:17 12.3 °C 11.8 °C 1018.2 hPa NNW 3.5 km/h 6.1 km/h 97% 0.0 mm 0 W/m2
01:22 12.2 °C 11.7 °C 1018.2 hPa NW 3.5 km/h 6.1 km/h 97% 0.0 mm 0 W/m2
01:27 12.1 °C 11.7 °C 1018.2 hPa NW 3.5 km/h 7.2 km/h 97% 0.0 mm 0 W/m2
01:32 12.1 °C 11.7 °C 1018.2 hPa NW 3.5 km/h 7.2 km/h 97% 0.0 mm 0 W/m2
01:37 12.1 °C 11.7 °C 1018.2 hPa NW 3.5 km/h 8.7 km/h 97% 0.0 mm 0 W/m2
01:42 12.1 °C 11.7 °C 1018.2 hPa NNW 3.5 km/h 8.7 km/h 97% 0.0 mm 0 W/m2
01:47 12.1 °C 11.7 °C 1018.2 hPa NNW 6.1 km/h 9.7 km/h 97% 0.0 mm 0 W/m2
01:52 12.1 °C 11.7 °C 1017.8 hPa NW 5.0 km/h 9.7 km/h 97% 0.0 mm 0 W/m2
01:57 12.0 °C 11.6 °C 1017.8 hPa NW 5.0 km/h 8.7 km/h 97% 0.0 mm 0 W/m2
02:02 12.0 °C 11.6 °C 1018.2 hPa NW 3.5 km/h 8.7 km/h 97% 0.0 mm 0 W/m2
02:07 11.9 °C 11.6 °C 1017.8 hPa NW 5.0 km/h 8.7 km/h 98% 0.0 mm 0 W/m2
02:12 11.8 °C 11.5 °C 1017.8 hPa NW 5.0 km/h 7.2 km/h 98% 0.0 mm 0 W/m2
02:17 11.8 °C 11.5 °C 1017.8 hPa NW 6.1 km/h 7.2 km/h 98% 0.0 mm 0 W/m2
02:22 11.8 °C 11.5 °C 1017.5 hPa NW 5.0 km/h 7.2 km/h 98% 0.0 mm 0 W/m2
02:27 11.7 °C 11.4 °C 1017.5 hPa NW 5.0 km/h 7.2 km/h 98% 0.0 mm 0 W/m2
02:32 11.7 °C 11.4 °C 1017.5 hPa NW 5.0 km/h 7.2 km/h 98% 0.0 mm 0 W/m2
02:37 11.6 °C 11.3 °C 1017.5 hPa NW 5.0 km/h 7.2 km/h 98% 0.0 mm 0 W/m2
02:42 11.6 °C 11.3 °C 1017.5 hPa NNW 3.5 km/h 7.2 km/h 98% 0.0 mm 0 W/m2
02:47 11.7 °C 11.4 °C 1017.5 hPa NNW 6.1 km/h 8.7 km/h 98% 0.0 mm 0 W/m2
02:52 11.7 °C 11.4 °C 1017.5 hPa NNW 6.1 km/h 8.7 km/h 98% 0.0 mm 0 W/m2
02:57 11.7 °C 11.4 °C 1017.5 hPa NNW 5.0 km/h 8.7 km/h 98% 0.0 mm 0 W/m2
03:02 11.6 °C 11.3 °C 1017.5 hPa NNW 5.0 km/h 8.7 km/h 98% 0.0 mm 0 W/m2
03:07 11.6 °C 11.3 °C 1017.5 hPa North 3.5 km/h 8.7 km/h 98% 0.0 mm 0 W/m2
03:12 11.5 °C 11.2 °C 1017.2 hPa NNW 2.6 km/h 8.7 km/h 98% 0.0 mm 0 W/m2
03:17 11.5 °C 11.2 °C 1017.2 hPa NNW 3.5 km/h 7.2 km/h 98% 0.0 mm 0 W/m2
03:22 11.5 °C 11.2 °C 1017.5 hPa NW 6.1 km/h 8.7 km/h 98% 0.0 mm 0 W/m2
03:27 11.5 °C 11.2 °C 1017.2 hPa NNW 3.5 km/h 9.7 km/h 98% 0.0 mm 0 W/m2
03:32 11.5 °C 11.2 °C 1017.2 hPa NNW 5.0 km/h 9.7 km/h 98% 0.0 mm 0 W/m2
03:37 11.5 °C 11.2 °C 1017.2 hPa NW 5.0 km/h 9.7 km/h 98% 0.0 mm 0 W/m2
03:42 11.4 °C 11.1 °C 1017.2 hPa NNW 3.5 km/h 8.7 km/h 98% 0.0 mm 0 W/m2
03:47 11.3 °C 11.0 °C 1016.8 hPa NNW 3.5 km/h 8.7 km/h 98% 0.0 mm 0 W/m2
03:52 11.2 °C 10.9 °C 1016.8 hPa NNW 2.6 km/h 7.2 km/h 98% 0.0 mm 0 W/m2
03:57 11.2 °C 10.9 °C 1016.8 hPa NNW 3.5 km/h 7.2 km/h 98% 0.0 mm 0 W/m2
04:02 11.2 °C 10.9 °C 1016.8 hPa NW 3.5 km/h 6.1 km/h 98% 0.0 mm 0 W/m2
04:07 11.2 °C 10.9 °C 1016.8 hPa NW 3.5 km/h 7.2 km/h 98% 0.0 mm 0 W/m2
04:12 11.1 °C 10.8 °C 1016.8 hPa NNW 5.0 km/h 7.2 km/h 98% 0.0 mm 0 W/m2
04:17 11.2 °C 10.9 °C 1016.8 hPa NNW 6.1 km/h 8.7 km/h 98% 0.0 mm 0 W/m2
04:22 11.2 °C 10.9 °C 1016.8 hPa NNW 3.5 km/h 8.7 km/h 98% 0.0 mm 0 W/m2
04:27 11.1 °C 10.8 °C 1016.8 hPa NNW 6.1 km/h 9.7 km/h 98% 0.0 mm 0 W/m2
04:32 11.1 °C 10.8 °C 1016.5 hPa NNW 5.0 km/h 9.7 km/h 98% 0.0 mm 0 W/m2
04:37 11.1 °C 10.8 °C 1016.8 hPa NW 3.5 km/h 9.7 km/h 98% 0.0 mm 0 W/m2
04:42 11.0 °C 10.7 °C 1016.8 hPa NW 2.6 km/h 7.2 km/h 98% 0.0 mm 0 W/m2
04:47 11.0 °C 10.7 °C 1016.5 hPa NNW 3.5 km/h 7.2 km/h 98% 0.0 mm 0 W/m2
04:52 10.9 °C 10.8 °C 1016.5 hPa NNW 3.5 km/h 7.2 km/h 99% 0.0 mm 0 W/m2
04:57 10.9 °C 10.8 °C 1016.5 hPa NNW 6.1 km/h 7.2 km/h 99% 0.0 mm 0 W/m2
05:02 10.8 °C 10.7 °C 1016.5 hPa NW 6.1 km/h 7.2 km/h 99% 0.0 mm 0 W/m2
05:07 10.8 °C 10.7 °C 1016.1 hPa NW 5.0 km/h 8.7 km/h 99% 0.0 mm 0 W/m2
05:12 10.8 °C 10.7 °C 1016.5 hPa NW 7.2 km/h 12.2 km/h 99% 0.0 mm 0 W/m2
05:17 10.8 °C 10.7 °C 1016.1 hPa NW 7.2 km/h 12.2 km/h 99% 0.0 mm 0 W/m2
05:22 10.8 °C 10.7 °C 1016.5 hPa NW 8.7 km/h 12.2 km/h 99% 0.0 mm 0 W/m2
05:27 10.8 °C 10.7 °C 1016.1 hPa NNW 8.7 km/h 12.2 km/h 99% 0.0 mm 0 W/m2
05:32 10.8 °C 10.7 °C 1016.1 hPa NNW 6.1 km/h 12.2 km/h 99% 0.0 mm 0 W/m2
05:37 10.8 °C 10.7 °C 1016.1 hPa NNW 5.0 km/h 11.1 km/h 99% 0.0 mm 0 W/m2
05:42 10.8 °C 10.7 °C 1016.5 hPa NNW 6.1 km/h 13.4 km/h 99% 0.0 mm 0 W/m2
05:47 10.8 °C 10.7 °C 1016.1 hPa NNW 6.1 km/h 13.4 km/h 99% 0.0 mm 0 W/m2
05:52 10.7 °C 10.6 °C 1016.5 hPa NNW 6.1 km/h 11.1 km/h 99% 0.0 mm 0 W/m2
05:57 10.7 °C 10.6 °C 1016.5 hPa NW 5.0 km/h 11.1 km/h 99% 0.0 mm 0 W/m2
06:02 10.7 °C 10.6 °C 1016.1 hPa NW 5.0 km/h 9.7 km/h 99% 0.0 mm 0 W/m2
06:07 10.6 °C 10.4 °C 1016.5 hPa NW 5.0 km/h 11.1 km/h 99% 0.0 mm 0 W/m2
06:12 10.6 °C 10.4 °C 1016.5 hPa NW 7.2 km/h 11.1 km/h 99% 0.0 mm 0 W/m2
06:17 10.6 °C 10.4 °C 1016.1 hPa NNW 7.2 km/h 11.1 km/h 99% 0.0 mm 0 W/m2
06:22 10.6 °C 10.4 °C 1016.5 hPa NNW 8.7 km/h 12.2 km/h 99% 0.0 mm 0 W/m2
06:27 10.6 °C 10.4 °C 1016.5 hPa NNW 5.0 km/h 13.4 km/h 99% 0.0 mm 0 W/m2
06:31 10.6 °C 10.4 °C 1016.1 hPa NNW 5.0 km/h 13.4 km/h 99% 0.0 mm 0 W/m2
06:36 10.6 °C 10.4 °C 1016.5 hPa NNW 6.1 km/h 9.7 km/h 99% 0.0 mm 0 W/m2
06:41 10.6 °C 10.4 °C 1016.1 hPa NNW 5.0 km/h 11.1 km/h 99% 0.0 mm 0 W/m2
06:46 10.4 °C 10.3 °C 1016.5 hPa NNW 6.1 km/h 11.1 km/h 99% 0.0 mm 1 W/m2
07:02 10.4 °C 10.3 °C 1016.5 hPa NNW 6.1 km/h 12.2 km/h 99% 0.0 mm 11 W/m2
07:07 10.5 °C 10.3 °C 1016.5 hPa NNW 2.6 km/h 11.1 km/h 99% 0.0 mm 15 W/m2
07:12 10.5 °C 10.3 °C 1016.5 hPa NNW 3.5 km/h 11.1 km/h 99% 0.0 mm 22 W/m2
07:17 10.6 °C 10.4 °C 1016.5 hPa NNW 6.1 km/h 9.7 km/h 99% 0.0 mm 37 W/m2
07:22 10.6 °C 10.4 °C 1016.5 hPa NW 7.2 km/h 11.1 km/h 99% 0.0 mm 74 W/m2
07:27 10.8 °C 10.7 °C 1016.5 hPa NNW 7.2 km/h 12.2 km/h 99% 0.0 mm 103 W/m2
07:32 11.0 °C 10.7 °C 1016.1 hPa NNW 5.0 km/h 12.2 km/h 98% 0.0 mm 114 W/m2
07:37 11.2 °C 10.9 °C 1016.5 hPa NNW 6.1 km/h 13.4 km/h 98% 0.0 mm 125 W/m2
07:42 11.3 °C 11.0 °C 1016.5 hPa NNW 5.0 km/h 13.4 km/h 98% 0.0 mm 135 W/m2
07:47 11.6 °C 11.3 °C 1016.5 hPa NNW 8.7 km/h 12.2 km/h 98% 0.0 mm 146 W/m2
07:52 11.8 °C 11.5 °C 1016.5 hPa NNW 6.1 km/h 12.2 km/h 98% 0.0 mm 156 W/m2
07:57 12.0 °C 11.6 °C 1016.5 hPa NNW 6.1 km/h 11.1 km/h 97% 0.0 mm 166 W/m2
08:02 12.2 °C 11.7 °C 1016.5 hPa NNW 7.2 km/h 12.2 km/h 97% 0.0 mm 178 W/m2
08:07 12.3 °C 11.8 °C 1016.5 hPa NNW 8.7 km/h 13.4 km/h 97% 0.0 mm 191 W/m2
08:12 12.5 °C 12.1 °C 1016.5 hPa NNW 7.2 km/h 13.4 km/h 97% 0.0 mm 202 W/m2
08:17 12.8 °C 12.3 °C 1016.5 hPa NNW 7.2 km/h 13.4 km/h 97% 0.0 mm 212 W/m2
08:22 12.7 °C 12.2 °C 1016.5 hPa North 7.2 km/h 17.2 km/h 97% 0.0 mm 221 W/m2
08:27 13.1 °C 12.5 °C 1016.8 hPa North 9.7 km/h 17.2 km/h 96% 0.0 mm 231 W/m2
08:32 13.1 °C 12.3 °C 1016.5 hPa NNW 8.7 km/h 14.8 km/h 95% 0.0 mm 240 W/m2
08:37 13.3 °C 12.3 °C 1016.5 hPa NNW 6.1 km/h 14.8 km/h 94% 0.0 mm 247 W/m2
08:42 13.5 °C 12.4 °C 1016.5 hPa NNW 11.1 km/h 14.8 km/h 93% 0.0 mm 257 W/m2
08:47 13.8 °C 12.6 °C 1016.5 hPa NNW 9.7 km/h 14.8 km/h 92% 0.0 mm 265 W/m2
08:52 13.9 °C 12.4 °C 1016.5 hPa NW 9.7 km/h 14.8 km/h 91% 0.0 mm 271 W/m2
08:57 14.0 °C 12.2 °C 1016.5 hPa NW 7.2 km/h 15.8 km/h 89% 0.0 mm 275 W/m2
09:02 14.0 °C 12.2 °C 1016.5 hPa NNW 6.1 km/h 15.8 km/h 89% 0.0 mm 278 W/m2
09:07 14.7 °C 12.9 °C 1016.5 hPa NNW 8.7 km/h 15.8 km/h 89% 0.0 mm 281 W/m2
09:12 14.8 °C 12.7 °C 1016.5 hPa NNW 8.7 km/h 14.8 km/h 87% 0.0 mm 288 W/m2
09:17 15.2 °C 12.9 °C 1016.5 hPa North 9.7 km/h 13.4 km/h 86% 0.0 mm 295 W/m2
09:22 15.3 °C 12.8 °C 1016.1 hPa NNW 6.1 km/h 13.4 km/h 85% 0.0 mm 310 W/m2
09:27 15.6 °C 12.9 °C 1016.5 hPa NW 8.7 km/h 13.4 km/h 84% 0.0 mm 324 W/m2
09:32 15.8 °C 12.9 °C 1016.1 hPa NNW 6.1 km/h 13.4 km/h 83% 0.0 mm 333 W/m2
09:37 16.4 °C 13.3 °C 1016.1 hPa NNW 9.7 km/h 12.2 km/h 82% 0.0 mm 346 W/m2
09:42 16.5 °C 13.4 °C 1016.1 hPa NNW 6.1 km/h 12.2 km/h 82% 0.0 mm 365 W/m2
09:47 16.7 °C 13.6 °C 1016.1 hPa NNW 7.2 km/h 12.2 km/h 82% 0.0 mm 375 W/m2
09:52 17.0 °C 13.3 °C 1016.1 hPa NNW 5.0 km/h 11.1 km/h 79% 0.0 mm 391 W/m2
09:57 17.4 °C 13.6 °C 1015.8 hPa NNW 8.7 km/h 11.1 km/h 78% 0.0 mm 412 W/m2
10:02 17.9 °C 13.8 °C 1015.8 hPa North 5.0 km/h 11.1 km/h 77% 0.0 mm 428 W/m2
10:07 18.2 °C 13.7 °C 1015.8 hPa NNW 5.0 km/h 11.1 km/h 75% 0.0 mm 443 W/m2
10:12 18.3 °C 13.8 °C 1015.8 hPa NW 2.6 km/h 11.1 km/h 75% 0.0 mm 457 W/m2
10:17 18.8 °C 14.5 °C 1015.8 hPa NW 5.0 km/h 11.1 km/h 76% 0.0 mm 473 W/m2
10:22 19.2 °C 14.3 °C 1015.8 hPa NNW 5.0 km/h 11.1 km/h 73% 0.0 mm 489 W/m2
10:27 19.7 °C 14.5 °C 1015.8 hPa NNW 2.6 km/h 11.1 km/h 72% 0.0 mm 503 W/m2
10:32 20.1 °C 14.4 °C 1015.8 hPa North 5.0 km/h 8.7 km/h 70% 0.0 mm 517 W/m2
10:37 20.2 °C 14.6 °C 1015.8 hPa North 5.0 km/h 9.7 km/h 70% 0.0 mm 529 W/m2
10:42 20.5 °C 14.8 °C 1015.8 hPa NNW 6.1 km/h 9.7 km/h 70% 0.0 mm 537 W/m2
10:47 20.9 °C 14.8 °C 1015.8 hPa Calm   9.7 km/h 68% 0.0 mm 560 W/m2
10:52 21.7 °C 14.8 °C 1015.5 hPa North 6.1 km/h 8.7 km/h 65% 0.0 mm 81 W/m2
10:57 21.0 °C 14.2 °C 1015.5 hPa NNW 3.5 km/h 11.1 km/h 65% 0.0 mm 547 W/m2
11:01 21.1 °C 14.5 °C 1015.5 hPa NNW 1.1 km/h 11.1 km/h 66% 0.0 mm 596 W/m2
11:06 21.8 °C 15.2 °C 1015.5 hPa NW 2.6 km/h 7.2 km/h 66% 0.0 mm 626 W/m2
11:11 22.5 °C 14.9 °C 1015.5 hPa ESE 5.0 km/h 9.7 km/h 62% 0.0 mm 650 W/m2
11:16 21.9 °C 14.3 °C 1015.1 hPa SE 5.0 km/h 12.2 km/h 62% 0.0 mm 666 W/m2
11:21 21.8 °C 14.2 °C 1015.1 hPa SSE 8.7 km/h 13.4 km/h 62% 0.0 mm 676 W/m2
11:26 21.0 °C 13.9 °C 1015.1 hPa SSE 9.7 km/h 13.4 km/h 64% 0.0 mm 686 W/m2
11:31 20.6 °C 13.8 °C 1015.1 hPa South 9.7 km/h 13.4 km/h 65% 0.0 mm 697 W/m2
11:36 20.3 °C 13.5 °C 1014.8 hPa South 9.7 km/h 14.8 km/h 65% 0.0 mm 713 W/m2
11:41 20.4 °C 14.1 °C 1015.1 hPa South 6.1 km/h 14.8 km/h 67% 0.0 mm 725 W/m2
11:46 20.4 °C 13.6 °C 1015.1 hPa South 3.5 km/h 15.8 km/h 65% 0.0 mm 745 W/m2
11:51 20.3 °C 13.5 °C 1014.8 hPa South 9.7 km/h 17.2 km/h 65% 0.0 mm 757 W/m2
11:56 20.5 °C 13.7 °C 1014.8 hPa SSE 3.5 km/h 17.2 km/h 65% 0.0 mm 772 W/m2
12:01 20.9 °C 14.1 °C 1014.8 hPa SSE 7.2 km/h 13.4 km/h 65% 0.0 mm 793 W/m2
12:06 20.7 °C 14.1 °C 1014.8 hPa South 6.1 km/h 14.8 km/h 66% 0.0 mm 807 W/m2
12:11 21.0 °C 14.2 °C 1014.8 hPa South 6.1 km/h 14.8 km/h 65% 0.0 mm 827 W/m2
12:16 21.3 °C 14.0 °C 1014.8 hPa South 9.7 km/h 13.4 km/h 63% 0.0 mm 844 W/m2
12:33 21.5 °C 13.9 °C 1014.4 hPa SE 5.0 km/h 15.8 km/h 62% 0.0 mm 887 W/m2
12:38 21.8 °C 13.9 °C 1014.4 hPa SE 8.7 km/h 15.8 km/h 61% 0.0 mm 905 W/m2
12:43 21.8 °C 13.9 °C 1014.4 hPa SSE 9.7 km/h 13.4 km/h 61% 0.0 mm 910 W/m2
12:48 22.1 °C 14.2 °C 1014.4 hPa SSE 6.1 km/h 13.4 km/h 61% 0.0 mm 918 W/m2
12:53 22.3 °C 14.4 °C 1014.4 hPa SE 5.0 km/h 12.2 km/h 61% 0.0 mm 920 W/m2
12:58 22.5 °C 14.6 °C 1014.4 hPa ESE 6.1 km/h 13.4 km/h 61% 0.0 mm 926 W/m2
13:03 22.7 °C 14.3 °C 1014.4 hPa SE 8.7 km/h 14.8 km/h 59% 0.0 mm 935 W/m2
13:08 22.6 °C 14.4 °C 1014.4 hPa SE 7.2 km/h 14.8 km/h 60% 0.0 mm 932 W/m2
13:13 23.0 °C 14.3 °C 1014.4 hPa SE 6.1 km/h 13.4 km/h 58% 0.0 mm 938 W/m2
13:18 22.9 °C 13.9 °C 1014.1 hPa SSE 7.2 km/h 14.8 km/h 57% 0.0 mm 936 W/m2
13:23 22.7 °C 14.3 °C 1014.1 hPa SE 6.1 km/h 14.8 km/h 59% 0.0 mm 932 W/m2
13:28 23.0 °C 14.6 °C 1014.1 hPa SE 7.2 km/h 14.8 km/h 59% 0.0 mm 931 W/m2
13:33 23.1 °C 14.4 °C 1014.1 hPa ESE 3.5 km/h 13.4 km/h 58% 0.0 mm 928 W/m2
13:38 23.3 °C 14.3 °C 1014.1 hPa SE 7.2 km/h 15.8 km/h 57% 0.0 mm 922 W/m2
13:43 23.0 °C 13.8 °C 1014.1 hPa SSE 7.2 km/h 15.8 km/h 56% 0.0 mm 917 W/m2
13:48 22.8 °C 13.6 °C 1014.1 hPa SSE 3.5 km/h 14.8 km/h 56% 0.0 mm 909 W/m2
13:53 23.1 °C 13.8 °C 1014.1 hPa SE 7.2 km/h 14.8 km/h 56% 0.0 mm 905 W/m2
13:58 23.3 °C 14.1 °C 1013.8 hPa SE 5.0 km/h 18.3 km/h 56% 0.0 mm 901 W/m2
14:03 23.4 °C 13.9 °C 1013.8 hPa SE 8.7 km/h 18.3 km/h 55% 0.0 mm 894 W/m2
14:08 23.6 °C 13.8 °C 1013.8 hPa SE 8.7 km/h 14.8 km/h 54% 0.0 mm 886 W/m2
14:13 23.5 °C 13.9 °C 1013.8 hPa SSE 11.1 km/h 18.3 km/h 55% 0.0 mm 874 W/m2
14:18 23.4 °C 13.9 °C 1013.8 hPa SE 8.7 km/h 18.3 km/h 55% 0.0 mm 865 W/m2
14:23 23.4 °C 13.9 °C 1013.4 hPa SE 7.2 km/h 18.3 km/h 55% 0.0 mm 852 W/m2
14:28 23.7 °C 13.6 °C 1013.4 hPa SSE 8.7 km/h 17.2 km/h 53% 0.0 mm 764 W/m2
14:33 23.7 °C 13.8 °C 1013.4 hPa SSE 6.1 km/h 17.2 km/h 54% 0.0 mm 684 W/m2
14:38 23.7 °C 13.8 °C 1013.4 hPa SSE 5.0 km/h 14.8 km/h 54% 0.0 mm 820 W/m2
14:43 24.0 °C 13.3 °C 1013.1 hPa SSE 11.1 km/h 18.3 km/h 51% 0.0 mm 781 W/m2
14:48 23.8 °C 13.7 °C 1013.1 hPa SE 7.2 km/h 18.3 km/h 53% 0.0 mm 737 W/m2
14:52 24.1 °C 14.2 °C 1013.1 hPa SE 7.2 km/h 18.3 km/h 54% 0.0 mm 627 W/m2
14:57 24.4 °C 14.8 °C 1013.1 hPa ESE 9.7 km/h 19.5 km/h 55% 0.0 mm 718 W/m2
15:02 24.2 °C 14.1 °C 1013.1 hPa SE 5.0 km/h 19.5 km/h 53% 0.0 mm 750 W/m2
15:07 24.4 °C 14.5 °C 1012.8 hPa SE 6.1 km/h 18.3 km/h 54% 0.0 mm 642 W/m2
15:12 24.7 °C 14.8 °C 1012.8 hPa SE 5.0 km/h 15.8 km/h 54% 0.0 mm 281 W/m2
15:17 24.8 °C 14.9 °C 1012.8 hPa SE 1.1 km/h 15.8 km/h 54% 0.0 mm 598 W/m2
15:22 25.3 °C 14.8 °C 1012.8 hPa SE 3.5 km/h 15.8 km/h 52% 0.0 mm 332 W/m2
15:27 25.4 °C 14.8 °C 1012.8 hPa SE 2.6 km/h 12.2 km/h 52% 0.0 mm 317 W/m2
15:32 25.6 °C 15.1 °C 1012.8 hPa SSE 7.2 km/h 14.8 km/h 52% 0.0 mm 181 W/m2
15:37 25.6 °C 15.1 °C 1012.8 hPa SSE 6.1 km/h 14.8 km/h 52% 0.0 mm 657 W/m2
15:42 25.9 °C 15.3 °C 1012.8 hPa SE 3.5 km/h 14.8 km/h 52% 0.0 mm 476 W/m2
15:47 26.2 °C 15.0 °C 1012.8 hPa Calm   12.2 km/h 50% 0.0 mm 593 W/m2
15:52 25.9 °C 14.7 °C 1012.4 hPa SE 6.1 km/h 12.2 km/h 50% 0.0 mm 527 W/m2
15:57 25.8 °C 14.9 °C 1012.4 hPa SSE 7.2 km/h 15.8 km/h 51% 0.0 mm 483 W/m2
16:02 25.6 °C 15.1 °C 1012.4 hPa SSE 8.7 km/h 15.8 km/h 52% 0.0 mm 528 W/m2
16:07 25.6 °C 15.1 °C 1012.4 hPa SSE 9.7 km/h 15.8 km/h 52% 0.0 mm 566 W/m2
16:12 25.8 °C 15.2 °C 1012.1 hPa SE 3.5 km/h 14.8 km/h 52% 0.0 mm 425 W/m2
16:17 25.9 °C 15.0 °C 1012.1 hPa ESE 2.6 km/h 14.8 km/h 51% 0.0 mm 488 W/m2
16:22 26.1 °C 14.9 °C 1012.4 hPa SE 5.0 km/h 12.2 km/h 50% 0.0 mm 209 W/m2
16:27 26.1 °C 15.2 °C 1012.1 hPa Calm   13.4 km/h 51% 0.0 mm 518 W/m2
16:32 26.3 °C 15.4 °C 1012.1 hPa ESE 5.0 km/h 13.4 km/h 51% 0.0 mm 506 W/m2
16:37 26.3 °C 15.7 °C 1012.1 hPa SE 2.6 km/h 11.1 km/h 52% 0.0 mm 283 W/m2
16:42 26.3 °C 16.0 °C 1012.1 hPa SE 9.7 km/h 13.4 km/h 53% 0.0 mm 478 W/m2
16:47 26.5 °C 16.2 °C 1012.1 hPa SE 2.6 km/h 14.8 km/h 53% 0.0 mm 466 W/m2
16:52 26.2 °C 16.2 °C 1011.7 hPa Calm   15.8 km/h 54% 0.0 mm 454 W/m2
16:57 26.1 °C 16.1 °C 1011.7 hPa SSE 1.1 km/h 15.8 km/h 54% 0.0 mm 436 W/m2
17:02 26.4 °C 16.4 °C 1012.1 hPa SSE 1.1 km/h 15.8 km/h 54% 0.0 mm 422 W/m2
17:07 26.7 °C 16.7 °C 1011.7 hPa SSE 6.1 km/h 12.2 km/h 54% 0.0 mm 409 W/m2
17:12 26.3 °C 16.6 °C 1011.7 hPa SSE 3.5 km/h 12.2 km/h 55% 0.0 mm 394 W/m2
17:17 26.2 °C 16.4 °C 1011.7 hPa SSE 1.1 km/h 11.1 km/h 55% 0.0 mm 378 W/m2
17:22 26.2 °C 16.8 °C 1011.7 hPa Calm   11.1 km/h 56% 0.0 mm 364 W/m2
17:27 26.5 °C 17.1 °C 1011.7 hPa SSE 2.6 km/h 9.7 km/h 56% 0.0 mm 349 W/m2
17:32 26.8 °C 17.1 °C 1011.7 hPa SSE 2.6 km/h 9.7 km/h 55% 0.0 mm 333 W/m2
17:37 27.4 °C 16.7 °C 1011.4 hPa SSE 6.1 km/h 11.1 km/h 52% 0.0 mm 320 W/m2
17:42 26.8 °C 16.7 °C 1011.7 hPa Calm   11.1 km/h 54% 0.0 mm 302 W/m2
17:47 27.3 °C 16.9 °C 1011.4 hPa South 6.1 km/h 11.1 km/h 53% 0.0 mm 289 W/m2
17:52 26.9 °C 16.8 °C 1011.4 hPa Calm   9.7 km/h 54% 0.0 mm 273 W/m2
17:57 26.9 °C 16.6 °C 1011.4 hPa SSE 2.6 km/h 11.1 km/h 53% 0.0 mm 259 W/m2
18:02 27.1 °C 16.7 °C 1011.4 hPa Calm   11.1 km/h 53% 0.0 mm 242 W/m2
18:07 27.5 °C 16.8 °C 1011.7 hPa Calm   7.2 km/h 52% 0.0 mm 228 W/m2
18:12 27.5 °C 16.5 °C 1011.4 hPa Calm   5.0 km/h 51% 0.0 mm 215 W/m2
18:17 27.5 °C 16.8 °C 1011.4 hPa Calm   5.0 km/h 52% 0.0 mm 200 W/m2
18:22 27.2 °C 16.5 °C 1011.4 hPa Calm   3.5 km/h 52% 0.0 mm 135 W/m2
18:27 25.8 °C 16.7 °C 1011.4 hPa SSW 1.1 km/h 5.0 km/h 57% 0.0 mm 111 W/m2
18:32 25.4 °C 17.3 °C 1011.4 hPa Calm   5.0 km/h 61% 0.0 mm 65 W/m2
18:37 25.0 °C 17.5 °C 1011.4 hPa Calm   5.0 km/h 63% 0.0 mm 89 W/m2
18:42 24.3 °C 17.3 °C 1011.4 hPa Calm   2.6 km/h 65% 0.0 mm 62 W/m2
18:47 23.7 °C 17.7 °C 1011.4 hPa Calm   2.6 km/h 69% 0.0 mm 51 W/m2
18:52 23.3 °C 17.6 °C 1011.4 hPa South 1.1 km/h 6.1 km/h 70% 0.0 mm 51 W/m2
18:57 23.0 °C 17.5 °C 1011.4 hPa Calm   6.1 km/h 71% 0.0 mm 42 W/m2
19:02 22.9 °C 17.6 °C 1011.4 hPa SSW 5.0 km/h 7.2 km/h 72% 0.0 mm 49 W/m2
19:07 22.9 °C 17.8 °C 1011.4 hPa SSW 6.1 km/h 9.7 km/h 73% 0.0 mm 67 W/m2
19:12 22.9 °C 17.8 °C 1011.4 hPa SSW 2.6 km/h 9.7 km/h 73% 0.0 mm 41 W/m2
19:17 22.9 °C 17.6 °C 1011.7 hPa SSW 6.1 km/h 9.7 km/h 72% 0.0 mm 34 W/m2
19:22 22.3 °C 17.2 °C 1011.7 hPa SW 3.5 km/h 8.7 km/h 73% 0.0 mm 30 W/m2
19:27 21.6 °C 17.2 °C 1011.7 hPa SW 3.5 km/h 8.7 km/h 76% 0.0 mm 26 W/m2
19:32 21.2 °C 17.4 °C 1011.7 hPa SW 3.5 km/h 9.7 km/h 79% 0.0 mm 22 W/m2
19:37 21.0 °C 17.4 °C 1012.1 hPa SW 6.1 km/h 9.7 km/h 80% 0.0 mm 18 W/m2
19:42 20.8 °C 17.8 °C 1012.1 hPa SW 8.7 km/h 11.1 km/h 83% 0.0 mm 13 W/m2
19:47 20.5 °C 17.7 °C 1012.1 hPa SW 6.1 km/h 11.1 km/h 84% 0.0 mm 10 W/m2
19:52 20.3 °C 17.7 °C 1012.1 hPa SW 5.0 km/h 11.1 km/h 85% 0.0 mm 6 W/m2
19:57 20.1 °C 17.5 °C 1012.1 hPa SW 3.5 km/h 12.2 km/h 85% 0.0 mm 4 W/m2
20:02 20.0 °C 17.6 °C 1012.1 hPa SW 2.6 km/h 12.2 km/h 86% 0.0 mm 1 W/m2
20:07 19.8 °C 17.6 °C 1012.4 hPa Calm   8.7 km/h 87% 0.0 mm 0 W/m2
20:12 19.6 °C 17.4 °C 1012.4 hPa Calm   5.0 km/h 87% 0.0 mm 0 W/m2
20:17 19.5 °C 17.3 °C 1012.4 hPa Calm   3.5 km/h 87% 0.0 mm 0 W/m2
20:22 19.3 °C 17.3 °C 1012.4 hPa SW 2.6 km/h 3.5 km/h 88% 0.0 mm 0 W/m2
20:27 19.4 °C 17.4 °C 1012.4 hPa SW 2.6 km/h 5.0 km/h 88% 0.0 mm 0 W/m2
20:32 19.4 °C 17.6 °C 1012.8 hPa Calm   6.1 km/h 89% 0.0 mm 0 W/m2
20:37 19.3 °C 17.4 °C 1012.8 hPa Calm   6.1 km/h 89% 0.0 mm 0 W/m2
20:42 19.3 °C 17.3 °C 1012.8 hPa SSW 2.6 km/h 6.1 km/h 88% 0.0 mm 0 W/m2
20:47 19.1 °C 16.9 °C 1012.8 hPa Calm   6.1 km/h 87% 0.0 mm 0 W/m2
20:52 19.1 °C 16.7 °C 1012.8 hPa SSE 2.6 km/h 6.1 km/h 86% 0.0 mm 0 W/m2
20:57 19.0 °C 16.4 °C 1012.8 hPa Calm   3.5 km/h 85% 0.0 mm 0 W/m2
21:02 18.8 °C 16.4 °C 1012.8 hPa Calm   3.5 km/h 86% 0.0 mm 0 W/m2
21:07 18.6 °C 16.2 °C 1012.8 hPa Calm     86% 0.0 mm 0 W/m2
21:12 18.4 °C 16.0 °C 1012.8 hPa Calm     86% 0.0 mm 0 W/m2
21:17 18.3 °C 15.9 °C 1013.1 hPa Calm     86% 0.0 mm 0 W/m2
21:22 18.1 °C 15.7 °C 1013.1 hPa Calm     86% 0.0 mm 0 W/m2
21:27 18.1 °C 15.9 °C 1013.1 hPa Calm     87% 0.0 mm 0 W/m2
21:32 18.0 °C 15.8 °C 1013.1 hPa Calm     87% 0.0 mm 0 W/m2
21:37 18.0 °C 16.0 °C 1013.1 hPa Calm     88% 0.0 mm 0 W/m2
21:42 17.8 °C 15.6 °C 1013.1 hPa Calm     87% 0.0 mm 0 W/m2
21:47 17.7 °C 15.5 °C 1013.1 hPa Calm     87% 0.0 mm 0 W/m2
21:52 17.7 °C 15.7 °C 1013.4 hPa Calm     88% 0.0 mm 0 W/m2
21:57 17.7 °C 15.7 °C 1013.4 hPa Calm     88% 0.0 mm 0 W/m2
22:02 17.6 °C 15.8 °C 1013.4 hPa Calm     89% 0.0 mm 0 W/m2
22:07 17.5 °C 15.7 °C 1013.4 hPa Calm     89% 0.0 mm 0 W/m2
22:12 17.5 °C 15.7 °C 1013.4 hPa Calm     89% 0.0 mm 0 W/m2
22:17 17.4 °C 15.8 °C 1013.4 hPa Calm     90% 0.0 mm 0 W/m2
22:22 17.3 °C 15.7 °C 1013.4 hPa Calm     90% 0.0 mm 0 W/m2
22:27 17.2 °C 15.6 °C 1013.4 hPa Calm     90% 0.0 mm 0 W/m2
22:32 17.1 °C 15.4 °C 1013.4 hPa Calm     90% 0.0 mm 0 W/m2
22:37 17.0 °C 15.3 °C 1013.4 hPa Calm     90% 0.0 mm 0 W/m2
22:42 16.8 °C 15.2 °C 1013.4 hPa Calm     90% 0.0 mm 0 W/m2
22:47 16.7 °C 15.1 °C 1013.4 hPa Calm     90% 0.0 mm 0 W/m2
22:52 16.6 °C 14.9 °C 1013.4 hPa Calm     90% 0.0 mm 0 W/m2
22:57 16.6 °C 15.3 °C 1013.4 hPa Calm     92% 0.0 mm 0 W/m2
23:02 16.6 °C 15.3 °C 1013.4 hPa Calm     92% 0.0 mm 0 W/m2
23:07 16.5 °C 15.2 °C 1013.4 hPa Calm     92% 0.0 mm 0 W/m2
23:12 16.5 °C 15.2 °C 1013.8 hPa Calm     92% 0.0 mm 0 W/m2
23:31 16.2 °C 14.9 °C 1013.8 hPa Calm     92% 0.0 mm 0 W/m2
23:36 16.1 °C 14.8 °C 1013.8 hPa Calm     92% 0.0 mm 0 W/m2
23:41 16.0 °C 14.7 °C 1013.8 hPa Calm     92% 0.0 mm 0 W/m2
23:46 15.9 °C 14.8 °C 1013.8 hPa Calm     93% 0.0 mm 0 W/m2
23:51 15.8 °C 14.7 °C 1013.8 hPa North 1.1 km/h 3.5 km/h 93% 0.0 mm 0 W/m2
23:56 15.8 °C 14.7 °C 1013.8 hPa North 1.1 km/h 3.5 km/h 93% 0.0 mm 0 W/m2
Northern Hawkes Bay. New Zealand Historic Data
Compliments of Weather Underground - 2.25 mb